Portada
METAR-TAF:

METAR-TAF

Aeroports :

Sullivan County International Airport

Monticello, Nova York, Estats Units d'Amèrica

latitud: 41-42N, longitud: 074-48W, altitud: 428 m

Observació

L'informe es va fer fa 49 minuts, a les 22:56 UTC
Vent 5 kt del Oest/Nord-Oest
Temperatura 27°C
Humitat 58%
Pressió 1017 hPa
Visibilitat: 16.1 km
Cel clar

METAR: KMSV 192256Z AUTO 29005KT 10SM CLR 27/18 A3004 RMK AO2 SLP165 T02670178

Hora: 19:45 (23:45 UTC)


TAF: manca

Observacions i pronòstics meteorològics de més de 4000 aeroports (METAR i TAF).

Les estacions disponibles són els punts grocs i vermells al mapa.

Posi el ratolí al punt desitjat per veure el nom de l'estació.

Feu clic per veure les observacions i els pronòstics meteorològics.

Per canviar el mapa: feu clic els botons verds amb una creu de color negre per apropar; al botó verd amb un guió per allunyar la imatge; o en les fletxes verdes per a mapes adjacents.


METAR-TAF: